Eastsound, WA

9:51 AM PDT on June 29, 2017 (GMT -0700)
Orcas Island

Weather History for KORS - February, 2013

Change the Weather History Date:

Friday, February 8, 2013

  Actual Average (KFHR) Record (KFHR)
Temperature  
Mean Temperature 38 °F -  
Max Temperature 42 °F 45 °F 57 °F (2015)
Min Temperature 33 °F 34 °F 21 °F (2014)
Degree Days  
Heating Degree Days 28    
Moisture  
Dew Point 37 °F    
Average Humidity 91    
Maximum Humidity 100    
Minimum Humidity 76    
Precipitation  
Precipitation 0.00 in - - ()
Sea Level Pressure  
Sea Level Pressure 30.26 in    
Wind  
Wind Speed 1 mph (NNW)    
Max Wind Speed 8 mph    
Max Gust Speed -    
Visibility 9 miles    
Events Rain    
Averages and records for this station are not official NWS values.
T = Trace of Precipitation, MM = Missing Value Source: NWS Daily Summary

Daily Weather History Graph

Daily Weather History Graph

Search for Another Location

Airport or City:

Trip Planner

Search our weather history database for the weather conditions in past years. The results will help you decide how hot, cold, wet, or windy it might be!

Date:

Astronomy

Feb. 08, 2013 Rise Set
Actual Time 7:30 AM PST 5:21 PM PST
Civil Twilight 6:57 AM PST 5:54 PM PST
Nautical Twilight 6:20 AM PST 6:32 PM PST
Astronomical Twilight 5:43 AM PST 7:08 PM PST
Moon 6:07 AM PST (2/8) 3:59 PM PST (2/8)
Length of Visible Light 10h 57m
Length of Day
9h 51m
Waning Crescent, 3% of the Moon is Illuminated
Feb 8
Waning Crescent
Feb 9
New
Feb 17
First Quarter
Feb 25
Full
Mar 4
Last Quarter

Hourly Weather History & Observations

Time (PST) Temp. Windchill Dew Point Humidity Pressure Visibility Wind Dir Wind Speed Gust Speed Precip Events Conditions
12:15 AM 35.6 °F - 35.6 °F 100% 30.19 in 10.0 mi Calm Calm - N/A   Scattered Clouds
12:35 AM 35.6 °F - 33.8 °F 93% 30.19 in 9.0 mi Calm Calm - N/A   Scattered Clouds
12:55 AM 33.8 °F - 32.0 °F 93% 30.19 in 8.0 mi Calm Calm - N/A   Partly Cloudy
1:15 AM 33.8 °F - 33.8 °F 100% 30.19 in 9.0 mi Calm Calm - N/A   Partly Cloudy
1:35 AM 33.8 °F - 33.8 °F 100% 30.20 in 10.0 mi Calm Calm - N/A   Mostly Cloudy
1:55 AM 33.8 °F - 33.8 °F 100% 30.21 in 10.0 mi Calm Calm - N/A   Overcast
2:15 AM 35.6 °F - 35.6 °F 100% 30.21 in 10.0 mi Calm Calm - N/A   Overcast
2:35 AM 37.4 °F - 37.4 °F 100% 30.22 in 10.0 mi Calm Calm - N/A   Overcast
2:55 AM 41.0 °F 35.8 °F 39.2 °F 93% 30.22 in 10.0 mi NNW 8.1 mph - N/A   Overcast
3:15 AM 39.2 °F - 37.4 °F 93% 30.22 in 10.0 mi Calm Calm - N/A   Scattered Clouds
3:35 AM 37.4 °F - 35.6 °F 93% 30.22 in 10.0 mi Calm Calm - N/A   Clear
4:15 AM 37.4 °F - 35.6 °F 93% 30.23 in 10.0 mi Calm Calm - N/A   Overcast
4:35 AM 41.0 °F 37.1 °F 37.4 °F 87% 30.24 in 10.0 mi North 5.8 mph - N/A   Overcast
4:55 AM 41.0 °F - 37.4 °F 87% 30.23 in 10.0 mi Calm Calm - N/A   Overcast
5:35 AM 39.2 °F - 37.4 °F 93% 30.24 in 10.0 mi Calm Calm - N/A   Overcast
6:15 AM 37.4 °F - 37.4 °F 100% 30.24 in 10.0 mi Calm Calm - N/A   Overcast
6:35 AM 37.4 °F - 37.4 °F 100% 30.25 in 3.0 mi Calm Calm - N/A Rain Light Rain
6:55 AM 37.4 °F - 37.4 °F 100% 30.25 in 7.0 mi Calm Calm - N/A   Mostly Cloudy
7:15 AM 37.4 °F - 37.4 °F 100% 30.25 in 5.0 mi Calm Calm - N/A   Overcast
7:35 AM 37.4 °F - 37.4 °F 100% 30.26 in 5.0 mi Calm Calm - N/A   Overcast
7:55 AM 37.4 °F - 37.4 °F 100% 30.26 in 3.0 mi Calm Calm - N/A   Overcast
8:15 AM 39.2 °F - 37.4 °F 93% 30.26 in 3.0 mi Calm Calm - N/A   Overcast
8:35 AM 39.2 °F - 39.2 °F 100% 30.27 in 2.0 mi Calm Calm - N/A Rain Light Rain
8:55 AM 39.2 °F - 39.2 °F 100% 30.27 in 3.0 mi Calm Calm - N/A Rain Light Rain
9:15 AM 39.2 °F - 39.2 °F 100% 30.28 in 5.0 mi Calm Calm - N/A   Mostly Cloudy
9:35 AM 39.2 °F - 39.2 °F 100% 30.28 in 6.0 mi Calm Calm - N/A   Mostly Cloudy
9:55 AM 41.0 °F 39.0 °F 39.2 °F 93% 30.28 in 4.0 mi WSW 3.5 mph - N/A Rain Light Rain
10:15 AM 41.0 °F - 39.2 °F 93% 30.28 in 10.0 mi Calm Calm - N/A   Overcast
10:35 AM 41.0 °F - 39.2 °F 93% 30.29 in 10.0 mi Calm Calm - N/A   Overcast
11:15 AM 41.0 °F - 39.2 °F 93% 30.29 in 10.0 mi Calm Calm - N/A   Mostly Cloudy
11:35 AM 41.0 °F - 39.2 °F 93% 30.29 in 10.0 mi Calm Calm - N/A   Overcast
11:55 AM 41.0 °F - 37.4 °F 87% 30.28 in 10.0 mi Calm Calm - N/A   Mostly Cloudy
12:15 PM 41.0 °F - 39.2 °F 93% 30.28 in 10.0 mi Calm Calm - N/A   Overcast
12:35 PM 42.8 °F 41.1 °F 39.2 °F 87% 30.27 in 10.0 mi NW 3.5 mph - N/A   Overcast
12:55 PM 42.8 °F 40.1 °F 39.2 °F 87% 30.27 in 10.0 mi North 4.6 mph - N/A   Overcast
1:15 PM 42.8 °F 40.1 °F 37.4 °F 81% 30.27 in 10.0 mi NNW 4.6 mph - N/A   Overcast
1:35 PM 42.8 °F 40.1 °F 37.4 °F 81% 30.28 in 10.0 mi North 4.6 mph - N/A   Overcast
1:55 PM 42.8 °F 40.1 °F 37.4 °F 81% 30.28 in 10.0 mi North 4.6 mph - N/A   Overcast
2:15 PM 42.8 °F - 37.4 °F 81% 30.27 in 10.0 mi Calm Calm - N/A   Overcast
2:35 PM 42.8 °F - 37.4 °F 81% 30.27 in 10.0 mi Calm Calm - N/A   Overcast
2:55 PM 42.8 °F - 37.4 °F 81% 30.27 in 10.0 mi Calm Calm - N/A   Overcast
3:15 PM 42.8 °F - 37.4 °F 81% 30.27 in 10.0 mi Calm Calm - N/A   Overcast
3:35 PM 41.0 °F - 37.4 °F 87% 30.27 in 10.0 mi Calm Calm - N/A   Overcast
4:15 PM 42.8 °F - 35.6 °F 76% 30.27 in 8.0 mi Calm Calm - N/A   Overcast
4:35 PM 42.8 °F - 37.4 °F 81% 30.26 in 10.0 mi Calm Calm - N/A   Overcast
4:55 PM 41.0 °F - 35.6 °F 81% 30.27 in 10.0 mi Calm Calm - N/A   Overcast
5:15 PM 41.0 °F - 37.4 °F 87% 30.27 in 10.0 mi Calm Calm - N/A   Overcast
5:35 PM 41.0 °F - 37.4 °F 87% 30.27 in 10.0 mi Calm Calm - N/A   Overcast
5:55 PM 41.0 °F - 37.4 °F 87% 30.27 in 10.0 mi Calm Calm - N/A   Overcast
6:15 PM 41.0 °F - 37.4 °F 87% 30.27 in 10.0 mi Calm Calm - N/A   Overcast
6:55 PM 41.0 °F - 37.4 °F 87% 30.26 in 10.0 mi Calm Calm - N/A   Overcast
7:15 PM 41.0 °F - 37.4 °F 87% 30.26 in 10.0 mi Calm Calm - N/A   Overcast
7:35 PM 41.0 °F - 37.4 °F 87% 30.26 in 10.0 mi Calm Calm - N/A   Overcast
7:55 PM 41.0 °F - 37.4 °F 87% 30.26 in 10.0 mi Calm Calm - N/A   Overcast
8:15 PM 41.0 °F - 37.4 °F 87% 30.26 in 10.0 mi Calm Calm - N/A   Overcast
8:35 PM 41.0 °F - 37.4 °F 87% 30.27 in 10.0 mi Calm Calm - N/A   Overcast
8:55 PM 41.0 °F - 37.4 °F 87% 30.26 in 10.0 mi Calm Calm - N/A   Overcast
9:15 PM 41.0 °F - 37.4 °F 87% 30.26 in 10.0 mi Calm Calm - N/A   Overcast
9:35 PM 41.0 °F - 37.4 °F 87% 30.26 in 10.0 mi Calm Calm - N/A   Overcast
9:55 PM 39.2 °F - 37.4 °F 93% 30.26 in 10.0 mi Calm Calm - N/A   Overcast
10:15 PM 39.2 °F - 37.4 °F 93% 30.27 in 10.0 mi Calm Calm - N/A   Overcast
10:35 PM 39.2 °F - 37.4 °F 93% 30.26 in 10.0 mi Calm Calm - N/A   Overcast
10:55 PM 39.2 °F - 37.4 °F 93% 30.25 in 10.0 mi Calm Calm - N/A   Mostly Cloudy
11:15 PM 39.2 °F - 37.4 °F 93% 30.26 in 10.0 mi Calm Calm - N/A   Overcast
11:35 PM 39.2 °F - 37.4 °F 93% 30.26 in 10.0 mi Calm Calm - N/A   Overcast
11:55 PM 39.2 °F - 37.4 °F 93% 30.27 in 10.0 mi Calm Calm - N/A   Overcast